G3ZSS Weather Reports


time (UTC)temp
C
wind
direction
speed
KPH
gust
KPH
rain 1hr
cm
rain 24hr
cm
rain mn
cm
humidity
%
barometer
mb
20260505153004 15 317 4.8 11.3 0.00 0.00 0.00 68 1011.0
20260505152004 15 332 3.2 12.9 0.00 0.00 0.00 68 1011.0
20260505151004 15 302 6.4 14.5 0.00 0.00 0.00 68 1011.1
20260505125003 15 304 4.8 12.9 0.00 0.00 0.00 67 1011.7
20260505122003 15 304 4.8 14.5 0.00 0.00 0.00 70 1011.7
20260505121003 15 299 8.0 12.9 0.00 0.00 0.00 69 1011.7
20260505115004 15 314 6.4 16.1 0.00 0.00 0.00 69 1011.8
20260505114003 15 314 4.8 12.9 0.00 0.00 0.00 70 1011.8
20260505112004 14 306 8.0 19.3 0.00 0.00 0.00 70 1012.0
20260505111004 14 315 8.0 19.3 0.00 0.00 0.00 71 1012.0
20260505102004 15 296 4.8 12.9 0.00 0.00 0.00 70 1012.1
20260505101004 14 326 8.0 14.5 0.00 0.00 0.00 71 1012.2
20260505100003 14 317 6.4 16.1 0.00 0.00 0.00 70 1012.2
20260505095004 14 316 6.4 16.1 0.00 0.00 0.00 70 1012.2
20260505094003 15 298 3.2 19.3 0.00 0.00 0.00 70 1012.2
20260505093003 15 275 4.8 16.1 0.00 0.00 0.00 71 1012.1
20260505092004 15 320 4.8 14.5 0.00 0.00 0.00 70 1012.2
20260505091004 15 306 6.4 16.1 0.00 0.00 0.00 71 1012.2
20260505090004 14 304 4.8 14.5 0.00 0.00 0.00 72 1012.2
20260505085004 14 285 3.2 19.3 0.00 0.00 0.00 74 1012.4
20260505083004 14 314 8.0 16.1 0.00 0.00 0.00 72 1012.4
20260505082004 14 319 6.4 14.5 0.00 0.00 0.00 73 1012.3
20260505081003 14 294 3.2 11.3 0.00 0.00 0.00 75 1012.3
20260505080004 13 276 3.2 19.3 0.00 0.00 0.00 76 1012.3
20260505075003 13 315 3.2 12.9 0.00 0.00 0.00 78 1012.2
20260505074003 13 328 1.6 4.8 0.00 0.00 0.00 81 1012.2
20260505073004 13 314 1.6 8.0 0.00 0.00 0.00 84 1012.3
20260505072003 13 312 4.8 11.3 0.00 0.00 0.00 84 1012.3
20260505071004 13 295 3.2 9.7 0.00 0.00 0.00 88 1012.3
20260505070004 12 324 3.2 9.7 0.00 0.00 0.00 90 1012.4
20260505064004 11 306 1.6 4.8 0.00 0.00 0.00 91 1012.6
20260505063004 11 323 1.6 4.8 0.00 0.00 0.00 91 1012.8
20260505062004 11 327 0.0 3.2 0.00 0.00 0.00 91 1012.6
20260505061003 11 322 1.6 8.0 0.00 0.00 0.00 91 1012.7
20260505060004 11 321 3.2 8.0 0.00 0.00 0.00 91 1012.5
20260505054003 11 327 0.0 1.6 0.00 0.00 0.00 91 1012.7
20260505053004 10 327 0.0 0.0 0.00 0.00 0.00 91 1012.6
20260505051004 10 327 0.0 0.0 0.00 0.00 0.00 91 1012.5
20260505041004 11 317 3.2 4.8 0.00 0.00 0.00 91 1012.6
20260505035003 11 294 1.6 4.8 0.00 0.00 0.00 91 1012.7
20260505034004 11 294 1.6 3.2 0.00 0.00 0.00 91 1012.8
20260505033003 11 294 1.6 3.2 0.00 0.00 0.00 91 1012.9
20260505032004 11 294 1.6 3.2 0.00 0.00 0.00 91 1012.9
20260505031004 11 294 0.0 1.6 0.00 0.00 0.00 91 1013.0
20260505025004 11 294 0.0 1.6 0.00 0.00 0.00 91 1012.9
20260505024004 11 294 1.6 1.6 0.00 0.00 0.00 90 1012.8
20260505023003 11 294 0.0 1.6 0.00 0.00 0.00 91 1012.8
20260505022004 11 294 0.0 1.6 0.00 0.00 0.00 91 1012.8
20260505021004 11 294 1.6 3.2 0.00 0.00 0.00 91 1012.9
20260505020004 11 295 1.6 4.8 0.00 0.00 0.00 91 1013.0
20260505015003 11 291 0.0 1.6 0.00 0.00 0.00 90 1013.1
20260505014004 12 291 0.0 1.6 0.00 0.00 0.00 90 1013.2
20260505013003 12 291 0.0 0.0 0.00 0.00 0.00 90 1013.2
20260505012004 12 291 0.0 1.6 0.00 0.00 0.00 90 1013.2
20260505011003 12 291 0.0 1.6 0.00 0.00 0.00 90 1013.4
20260505010003 12 291 0.0 4.8 0.00 0.00 0.00 90 1013.2
20260505004004 12 291 0.0 1.6 0.00 0.00 0.00 90 1013.6
20260505003004 12 291 0.0 3.2 0.00 0.00 0.00 90 1013.6
20260505002004 12 290 1.6 3.2 0.00 0.00 0.00 90 1013.4
20260505001004 12 219 0.0 1.6 0.00 0.00 0.00 90 1013.6
20260505000004 12 219 0.0 0.0 0.00 0.00 0.00 90 1013.8
20260504235003 12 219 0.0 0.0 0.00 0.00 0.00 90 1013.7
20260504233004 12 219 0.0 0.0 0.00 0.00 0.00 90 1013.7
20260504232003 12 219 0.0 0.0 0.00 0.00 0.00 90 1013.7
20260504231004 12 219 0.0 1.6 0.00 0.00 0.00 90 1013.7
20260504230003 12 219 0.0 0.0 0.00 0.00 0.00 90 1013.7
20260504225003 13 219 0.0 0.0 0.00 0.00 0.00 90 1013.7
20260504223004 13 219 0.0 0.0 0.00 0.00 0.00 90 1013.8
20260504222003 13 219 0.0 0.0 0.00 0.00 0.00 90 1013.9
20260504221003 13 219 0.0 0.0 0.00 0.00 0.00 90 1013.9
20260504220004 13 219 0.0 1.6 0.00 0.00 0.00 90 1013.9
20260504215003 13 219 0.0 0.0 0.00 0.00 0.00 90 1014.0
20260504214003 13 219 0.0 1.6 0.00 0.00 0.00 90 1014.1
20260504211003 13 219 0.0 1.6 0.00 0.00 0.00 89 1013.9
20260504210004 13 219 0.0 0.0 0.00 0.00 0.00 88 1013.9
20260504205004 13 219 0.0 1.6 0.00 0.00 0.00 88 1013.9
20260504203004 13 219 0.0 0.0 0.00 0.00 0.00 87 1013.9
20260504202003 13 219 0.0 0.0 0.00 0.00 0.00 87 1013.9
20260504201003 13 219 0.0 0.0 0.00 0.00 0.00 87 1013.9
20260504200004 13 219 0.0 3.2 0.00 0.00 0.00 86 1013.8
20260504194004 14 219 0.0 3.2 0.00 0.00 0.00 85 1013.7
20260504192004 14 219 0.0 0.0 0.00 0.00 0.00 85 1013.5
20260504191003 14 219 0.0 1.6 0.00 0.00 0.00 85 1013.5
20260504190003 14 219 1.6 4.8 0.00 0.00 0.00 85 1013.4
20260504185004 15 219 0.0 4.8 0.00 0.00 0.00 84 1013.4
20260504184004 15 219 1.6 4.8 0.00 0.00 0.00 84 1013.3
20260504183003 15 219 1.6 3.2 0.00 0.00 0.00 84 1013.3
20260504182004 15 219 0.0 4.8 0.00 0.00 0.00 84 1013.2
20260504181004 16 219 1.6 4.8 0.00 0.00 0.00 82 1013.2
20260504180003 16 219 0.0 3.2 0.00 0.00 0.00 82 1013.1
20260504175004 16 219 0.0 3.2 0.00 0.00 0.00 80 1013.1
20260504174003 16 219 1.6 1.6 0.00 0.00 0.00 80 1013.1
20260504173003 16 219 1.6 4.8 0.00 0.00 0.00 81 1013.1
20260504172004 16 219 1.6 3.2 0.00 0.00 0.00 81 1013.1
20260504171004 16 219 1.6 4.8 0.00 0.00 0.00 81 1013.0